Location: Archamps
(46.1365°N, 6.1329°E)
Time: 06:03:31
(UTC+00:00)

SKYMED 2 - Pass Details

Date: 28 January 2023
Orbit: 621 x 623 km, 97.9° (Epoch: 21 March)

Event Time Altitude Azimuth Distance (km) Brightness Sun altitude
Rises 17:41:06 0° 14° (NNE) 2,919 6.7 -11.7°
Reaches altitude 10° 17:43:19 10° 16° (NNE) 2,007 5.9 -12.1°
Maximum altitude 17:47:41 77° 102° (ESE) 645 3.5 -12.8°
Drops below altitude 10° 17:52:01 10° 189° (S) 1,989 6.4 -13.6°
Sets 17:54:12 0° 191° (S) 2,890 7.3 -13.9°
